Voltar ao catálogo

STARLINK-3055

AtivoComunicaçõesVLEO
NORAD 49137·PAYLOAD·🇺🇸 United States

Lançado Sep 14, 2021 de Vandenberg Space Force Base

Loading…

Próximas Passagens (próximas 24 horas)

TLE

AtualizadoSource: CelesTrak SupGP

Época: Sep 14, 2026, 21:23 UTC

1 49137C 21082H   26257.89145833 -.00044547  00000+0 -38118-2 0  2575
2 49137  70.0013 158.7976 0002836 270.4516 330.4392 14.97546996    19

Acompanhe STARLINK-3055 em tempo real com AllMySat

Download on the App Store